Showing default

MR-1, 67557

Orbit data source: Space-Track

MR-1, 67557 is a payload satellite owned by Open Cosmos (ES) in LEO that was launched on Thu, 22 Jan 2026 UTC via an ELECTRON launch vehicle from the Rocket Lab Launch Complex (RLLC). Payload-class satellites include a variety of spacecraft equipped with specific instruments for various scientific and technological missions. These include communications satellites like Starlink; space stations such as the ISS; scientific satellites like the Hubble; Earth observation satellites from companies like Planet Labs, Umbra, and HawkEye 360; GPS; miniature CubeSats for education and research; and military/defense satellites.

Loading next visibility...
Identifier
67557, 2026-015B
Orbit
LEO
Country
Flag of ESES / SPN
Related business
Manufacturer
Open Cosmos
Mission
Operational Commercial Communications
Bus & Motor
CUBESAT 12U?, Unknown motor
Mass
~20 kg wet, ~20 kg dry
Launch date (UTC)
2026-01-22 (5 months ago)
Launch vehicle
ELECTRON
Launch site
Rocket Lab Launch Complex (RLLC)
Object type
Payload
Rocket body
Debris
Shape & HBR
Box, 0.3 m
Radar Cross Section
0.100 m², Medium (>0.1 m² and < 1m²)

Expand to show TLE details & history
Last TLE update: 13 hours ago

TLE from 13 hours ago
0 MR-1
1 67557U 26015B   26171.31284187  .00000051  00000-0  58883-4 0  9997
2 67557  89.0005 268.2214 0005286  79.4922 280.6825 13.52669075 20134
Epoch: 2026-06-20T07:30Z
TLE epoch observation values (Epoch: 2026-06-20T07:30:29.537Z)
Latitude
-0.00007°
Longitude
-112.93094°
Altitude
1,064.683 km
Speed
7.32 km/s
True Right ascension
17h 52m 53s
True Declination
0° 00' 00"
Sunlit
Object was in full shadow at epoch
Visualization orbit readout
Latitude
Unknown
Longitude
Unknown
Altitude
Unknown
Speed
Unknown
Apparent Right ascension
Unknown
Apparent Declination
Unknown
Sunlit
N/A
Visualization observer readout
Local Sidereal Time
07:24:31
Azimuth
Unknown
Elevation
Unknown
Doppler factor
Unknown
Orbital elements
Apogee altitude
1,063.435 km
Perigee altitude
1,055.572 km
Semi-major axis
7,437.64 km
Eccentricity
0.00053
Inclination
89.0005°
RAAN
268.2214°
Arg. of periapsis
79.4922°
True anomaly
280.62297°
Mean anomaly
280.6825°
Eccentric anomaly
280.65274°
Mean motion
3.38369 °/min
Orbital period
106.39 mins
BSTAR
0.000058883
Loading maneuver chart data...
Computing Atmospheric mass density...
Loading historical data...
Loading historical data...
Loading historical data...
Loading historical data...
Loading historical data...
Loading historical data...
Loading historical data...
Other satellites on launch #15 in the year 2026 (2026-01-22 UTC)

Documentation

Showing up to 5 results
|